Location: Glendale
(37.4556°N, 88.6714°W)
Time: 11:00:13
(UTC+00:00)

Okean-O - Pass Details

Date: 08 December 2019
Orbit: 639 x 641 km, 98.2° (Epoch: 25 January)

Event Time Altitude Azimuth Distance (km) Brightness Sun altitude
Rises 00:03:55 0° 176° (S) 2,929 6.2 -16.9°
Reaches altitude 10° 00:06:09 10° 180° (S) 2,025 5.4 -17.3°
Maximum altitude 00:10:29 58° 259° (W) 752 3.3 -18.2°
Drops below altitude 10° 00:14:52 10° 339° (NNW) 2,039 5.3 -19.0°
Sets 00:17:07 0° 343° (NNW) 2,953 6.1 -19.4°
